Hourly Weather Noryntsi

Today, 22 September, Tuesday

Time Temperature Precipitation Wind Pressure Humidity
00:00 +13°C° 0 mm 2 mps 753 mmHg 72%
01:00 +13°C° 0 mm 2 mps 753 mmHg 72%
02:00 +12°C° 0 mm 2 mps 753 mmHg 74%
03:00 +12°C° 0 mm 2 mps 753 mmHg 72%
04:00 +12°C° 0 mm 2 mps 753 mmHg 71%
05:00 +10°C° 0 mm 2 mps 753 mmHg 69%
06:00 +13°C° 0 mm 2 mps 753 mmHg 64%
07:00 +14°C° 0 mm 2 mps 753 mmHg 60%
08:00 +15°C° 0 mm 2 mps 753 mmHg 54%
09:00 +18°C° 0 mm 3 mps 753 mmHg 49%
10:00 +20°C° 0 mm 3 mps 753 mmHg 44%
11:00 +22°C° 0 mm 3 mps 753 mmHg 39%
12:00 +24°C° 0 mm 3 mps 753 mmHg 37%
13:00 +25°C° 0 mm 4 mps 753 mmHg 36%
14:00 +26°C° 0 mm 4 mps 753 mmHg 34%
15:00 +25°C° 0 mm 3 mps 752 mmHg 40%
16:00 +24°C° 0 mm 3 mps 752 mmHg 45%
17:00 +23°C° 0 mm 2 mps 751 mmHg 50%
18:00 +20°C° 0 mm 2 mps 751 mmHg 53%
19:00 +18°C° 0 mm 2 mps 751 mmHg 56%
20:00 +17°C° 0 mm 2 mps 751 mmHg 60%
21:00 +16°C° 0 mm 2 mps 751 mmHg 59%
22:00 +15°C° 0 mm 2 mps 751 mmHg 59%
23:00 +15°C° 0 mm 2 mps 751 mmHg 59%

Tomorrow, 23 September, Wednesday

Time Temperature Precipitation Wind Pressure Humidity
00:00 +14°C° 0 mm 2 mps 751 mmHg 58%
01:00 +14°C° 0 mm 2 mps 751 mmHg 57%
02:00 +13°C° 0 mm 2 mps 751 mmHg 56%
03:00 +13°C° 0 mm 2 mps 751 mmHg 54%
04:00 +12°C° 0 mm 2 mps 751 mmHg 52%
05:00 +12°C° 0 mm 2 mps 750 mmHg 50%
06:00 +13°C° 0 mm 2 mps 750 mmHg 48%
07:00 +14°C° 0 mm 2 mps 750 mmHg 46%
08:00 +15°C° 0 mm 2 mps 750 mmHg 44%
09:00 +17°C° 0 mm 3 mps 750 mmHg 42%
10:00 +20°C° 0 mm 3 mps 750 mmHg 39%
11:00 +22°C° 0 mm 4 mps 750 mmHg 37%
12:00 +23°C° 0 mm 4 mps 750 mmHg 33%
13:00 +23°C° 0 mm 4 mps 749 mmHg 30%
14:00 +25°C° 0 mm 4 mps 749 mmHg 27%
15:00 +24°C° 0 mm 3 mps 749 mmHg 31%
16:00 +22°C° 0 mm 3 mps 749 mmHg 36%
17:00 +21°C° 0 mm 2 mps 748 mmHg 41%
18:00 +19°C° 0 mm 2 mps 748 mmHg 42%
19:00 +17°C° 0 mm 2 mps 748 mmHg 44%
20:00 +15°C° 0 mm 2 mps 748 mmHg 46%
21:00 +15°C° 0 mm 2 mps 748 mmHg 46%
22:00 +14°C° 0 mm 2 mps 748 mmHg 45%
23:00 +13°C° 0 mm 2 mps 748 mmHg 45%

Day after tomorrow, 24 September, Thursday

Time Temperature Precipitation Wind Pressure Humidity
00:00 +13°C° 0 mm 2 mps 748 mmHg 44%
01:00 +13°C° 0 mm 2 mps 748 mmHg 44%
02:00 +13°C° 0 mm 2 mps 748 mmHg 43%
03:00 +12°C° 0 mm 2 mps 748 mmHg 44%
04:00 +12°C° 0 mm 2 mps 748 mmHg 45%
05:00 +12°C° 0 mm 2 mps 748 mmHg 46%
06:00 +13°C° 0 mm 2 mps 748 mmHg 46%
07:00 +14°C° 0 mm 2 mps 748 mmHg 47%
08:00 +15°C° 0 mm 2 mps 748 mmHg 47%
09:00 +17°C° 0 mm 3 mps 748 mmHg 45%
10:00 +19°C° 0 mm 3 mps 748 mmHg 42%
11:00 +22°C° 0 mm 3 mps 748 mmHg 40%
12:00 +22°C° 0 mm 3 mps 748 mmHg 39%
13:00 +23°C° 0 mm 4 mps 748 mmHg 38%
14:00 +25°C° 0 mm 4 mps 748 mmHg 37%
15:00 +24°C° 0 mm 3 mps 747 mmHg 41%
16:00 +23°C° 0 mm 2 mps 747 mmHg 45%
17:00 +21°C° 0 mm 2 mps 747 mmHg 49%
18:00 +19°C° 0 mm 2 mps 747 mmHg 49%
19:00 +18°C° 0 mm 2 mps 747 mmHg 49%
20:00 +16°C° 0 mm 2 mps 747 mmHg 48%
21:00 +16°C° 0 mm 2 mps 747 mmHg 48%
22:00 +15°C° 0 mm 2 mps 747 mmHg 47%
23:00 +15°C° 0 mm 2 mps 747 mmHg 47%

25 September, Friday

Time Temperature Precipitation Wind Pressure Humidity
00:00 +15°C° 0 mm 2 mps 747 mmHg 50%
01:00 +14°C° 0 mm 2 mps 747 mmHg 52%
02:00 +14°C° 0 mm 2 mps 747 mmHg 55%
03:00 +14°C° 0 mm 2 mps 747 mmHg 56%
04:00 +13°C° 0 mm 2 mps 746 mmHg 58%
05:00 +13°C° 0 mm 2 mps 746 mmHg 59%
06:00 +14°C° 0 mm 2 mps 746 mmHg 58%
07:00 +16°C° 0 mm 2 mps 746 mmHg 56%
08:00 +17°C° 0 mm 2 mps 746 mmHg 55%
09:00 +19°C° 0 mm 3 mps 746 mmHg 50%
10:00 +21°C° 0 mm 3 mps 746 mmHg 45%
11:00 +25°C° 0 mm 4 mps 746 mmHg 40%
12:00 +25°C° 0 mm 4 mps 745 mmHg 39%
13:00 +26°C° 0 mm 5 mps 745 mmHg 37%
14:00 +27°C° 0 mm 5 mps 745 mmHg 35%
15:00 +26°C° 0 mm 4 mps 744 mmHg 39%
16:00 +25°C° 0 mm 4 mps 744 mmHg 43%
17:00 +24°C° 0 mm 3 mps 744 mmHg 47%
18:00 +22°C° 0 mm 4 mps 744 mmHg 48%
19:00 +20°C° 0 mm 4 mps 744 mmHg 49%
20:00 +19°C° 0 mm 4 mps 743 mmHg 51%
21:00 +19°C° 0 mm 4 mps 743 mmHg 51%
22:00 +18°C° 0 mm 4 mps 743 mmHg 51%
23:00 +18°C° 0 mm 4 mps 743 mmHg 51%

26 September, Saturday

Time Temperature Precipitation Wind Pressure Humidity
00:00 +17°C° 0 mm 4 mps 743 mmHg 54%
01:00 +17°C° 0 mm 4 mps 743 mmHg 57%
02:00 +17°C° 0 mm 4 mps 743 mmHg 59%
03:00 +15°C° 0 mm 4 mps 743 mmHg 62%
04:00 +15°C° 0 mm 4 mps 742 mmHg 64%
05:00 +15°C° 0 mm 4 mps 742 mmHg 67%
06:00 +17°C° 0 mm 4 mps 742 mmHg 65%
07:00 +16°C° 0 mm 5 mps 742 mmHg 64%
08:00 +17°C° 0 mm 5 mps 742 mmHg 62%
09:00 +20°C° 0 mm 6 mps 742 mmHg 56%
10:00 +22°C° 0 mm 6 mps 742 mmHg 50%
11:00 +26°C° 0 mm 7 mps 742 mmHg 45%
12:00 +26°C° 0 mm 7 mps 742 mmHg 44%
13:00 +27°C° 0 mm 7 mps 742 mmHg 43%
14:00 +28°C° 0 mm 7 mps 741 mmHg 42%
15:00 +27°C° 0 mm 6 mps 741 mmHg 45%
16:00 +26°C° 0 mm 5 mps 741 mmHg 47%
17:00 +25°C° 0 mm 5 mps 741 mmHg 50%
18:00 +23°C° 0 mm 5 mps 741 mmHg 51%
19:00 +22°C° 0 mm 5 mps 740 mmHg 52%
20:00 +21°C° 0 mm 5 mps 740 mmHg 53%
21:00 +21°C° 0 mm 5 mps 740 mmHg 52%
22:00 +21°C° 0 mm 5 mps 740 mmHg 52%
23:00 +21°C° 0 mm 6 mps 740 mmHg 52%

27 September, Sunday

Time Temperature Precipitation Wind Pressure Humidity
00:00 +21°C° 0 mm 6 mps 740 mmHg 53%
01:00 +21°C° 0 mm 7 mps 740 mmHg 55%
02:00 +21°C° 0 mm 7 mps 740 mmHg 57%
03:00 +20°C° 0 mm 7 mps 740 mmHg 55%
04:00 +18°C° 0 mm 7 mps 740 mmHg 54%
05:00 +18°C° 0 mm 7 mps 740 mmHg 52%
06:00 +18°C° 0 mm 8 mps 740 mmHg 52%
07:00 +17°C° 0 mm 9 mps 739 mmHg 53%
08:00 +17°C° 0 mm 10 mps 739 mmHg 53%
09:00 +18°C° 0.1 mm 10 mps 739 mmHg 53%
10:00 +19°C° 0.1 mm 10 mps 739 mmHg 53%
11:00 +19°C° 0.1 mm 10 mps 739 mmHg 52%
12:00 +19°C° 0.5 mm 9 mps 739 mmHg 58%
13:00 +20°C° 0.5 mm 7 mps 738 mmHg 64%
14:00 +19°C° 0.5 mm 6 mps 738 mmHg 70%
15:00 +20°C° 0.3 mm 5 mps 739 mmHg 66%
16:00 +20°C° 0.3 mm 5 mps 739 mmHg 63%
17:00 +20°C° 0.3 mm 4 mps 739 mmHg 60%
18:00 +19°C° 0 mm 3 mps 740 mmHg 63%
19:00 +18°C° 0 mm 3 mps 740 mmHg 66%
20:00 +16°C° 0 mm 3 mps 741 mmHg 69%
21:00 +14°C° 0 mm 3 mps 742 mmHg 70%
22:00 +14°C° 0 mm 2 mps 742 mmHg 70%
23:00 +13°C° 0 mm 2 mps 743 mmHg 71%
Show more